Location: Caltech
(34.1382°N, 118.1253°W)
Time: 15:23:34
(UTC-07:00)

Courier 1B - Visible Passes

Search period start: 23 July 2014 00:00
Search period end: 02 August 2014 00:00
Orbit: 963 x 1209 km, 28.3° (Epoch: 23 July)

Date Brightness Start Highest point End Pass type
(mag) Time Alt. Az. Time Alt. Az. Time Alt. Az.
23 Jul 9.7 01:52:20 16° ESE 01:52:20 16° ESE 01:53:40 10° E visible
23 Jul 7.9 03:39:15 45° SW 03:40:25 49° S 03:47:17 10° ESE visible
23 Jul 8.7 05:28:09 10° WSW 05:34:01 26° SSW 05:39:36 10° SSE visible
23 Jul 9.5 21:02:22 10° S 21:05:01 12° SSE 21:05:01 12° SSE visible
23 Jul 9.9 22:51:54 10° SW 22:52:00 10° SW 22:52:00 10° SW visible
24 Jul 8.6 02:49:22 37° SE 02:49:22 37° SE 02:53:45 10° ESE visible
24 Jul 8.4 04:36:18 20° WSW 04:40:23 33° SSW 04:46:35 10° SE visible
24 Jul 9.0 21:58:42 10° SSW 22:02:47 24° S 22:02:47 24° S visible
25 Jul 9.9 01:59:40 12° ESE 01:59:40 12° ESE 02:00:07 10° ESE visible
25 Jul 8.2 03:46:38 39° SSW 03:46:42 39° SSW 03:53:21 10° SE visible
25 Jul 9.0 21:05:47 10° SSW 21:11:14 21° SSE 21:13:25 19° SE visible
25 Jul 9.3 22:57:36 10° SW 23:00:23 23° SW 23:00:23 23° SW visible
26 Jul 9.1 02:57:08 24° SE 02:57:08 24° SE 02:59:57 10° ESE visible
26 Jul 8.8 04:44:07 19° SW 04:46:32 23° SSW 04:51:53 10° SSE visible
26 Jul 8.4 22:04:07 10° SW 22:10:50 37° SSE 22:10:50 37° SSE visible
26 Jul 10.0 23:57:26 10° WSW 23:57:47 12° WSW 23:57:47 12° WSW visible
27 Jul 8.8 03:54:48 26° S 03:54:48 26° S 03:59:00 10° SSE visible
27 Jul 8.6 21:10:49 10° SW 21:17:20 31° SSE 21:21:05 21° ESE visible
27 Jul 8.8 23:03:40 10° WSW 23:08:01 34° SW 23:08:01 34° SW visible
28 Jul 9.9 03:05:37 11° SE 03:05:37 11° SE 03:05:51 10° SE visible
28 Jul 9.3 04:52:36 14° SSW 04:52:36 14° SSW 04:55:59 10° S visible
28 Jul 8.9 20:17:46 10° SSW 20:23:38 25° SSE 20:29:40 10° ESE visible
28 Jul 8.1 22:10:01 10° WSW 22:17:20 48° SSE 22:18:03 46° SSE visible
29 Jul 9.8 00:03:47 10° WSW 00:04:58 15° WSW 00:04:58 15° WSW visible
29 Jul 9.7 04:03:28 11° S 04:03:28 11° S 04:03:55 10° SSE visible
29 Jul 8.3 21:16:30 10° SW 21:23:31 42° SSE 21:27:55 23° ESE visible
29 Jul 8.6 23:09:57 10° WSW 23:14:49 39° SW 23:14:49 39° SW visible
30 Jul 8.5 20:23:09 10° SW 20:29:46 35° SSE 20:36:39 10° E visible
30 Jul 7.9 22:16:13 10° WSW 22:23:39 55° S 22:24:31 53° SSE visible
31 Jul 9.8 00:10:14 10° W 00:11:25 15° W 00:11:25 15° W visible
31 Jul 8.1 21:22:35 10° WSW 21:29:48 51° S 21:34:07 26° ESE visible
31 Jul 8.7 23:16:22 10° W 23:21:00 37° WSW 23:21:00 37° WSW visible
01 Aug 8.2 20:29:03 10° WSW 20:36:00 46° SSE 20:43:18 10° E visible
01 Aug 7.9 22:22:36 10° WSW 22:30:01 57° S 22:30:30 56° SSE visible
